Location: Waco, TX
(31.5480°N, 97.1670°W)
Time: 00:52:00
(UTC-05:00)

ISS - Pass Details

Date: 23 May 2018
Orbit: 402 x 407 km, 51.6° (Epoch: 23 May)

Event Time Altitude Azimuth Distance (km) Brightness Sun altitude
Rises 19:36:21 0° 194° (SSW) 2,304 -0.1 8.5°
Reaches altitude 10° 19:38:49 10° 175° (S) 1,449 -1.2 8.0°
Maximum altitude 19:41:12 19° 128° (SE) 1,032 -2.3 7.5°
Drops below altitude 10° 19:43:35 10° 80° (E) 1,453 -1.5 7.0°
Sets 19:46:02 0° 62° (ENE) 2,315 -0.4 6.5°
